Tiempo cada hora Dahbed

Hoy, 25 Noviembre, Miércoles

Tiempo Temperatura Precipitaciones Viento Presión Humedad
00:00 0°C° 0 mm 1 mps 710 mmHg 47%
01:00 -1°C° 0 mm 1 mps 710 mmHg 48%
02:00 -1°C° 0 mm 1 mps 710 mmHg 49%
03:00 -1°C° 0 mm 1 mps 710 mmHg 51%
04:00 -2°C° 0 mm 1 mps 710 mmHg 58%
05:00 -2°C° 0 mm 1 mps 710 mmHg 58%
06:00 -2°C° 0 mm 1 mps 710 mmHg 59%
07:00 -2°C° 0 mm 1 mps 711 mmHg 59%
08:00 0°C° 0 mm 1 mps 711 mmHg 56%
09:00 +1°C° 0 mm 1 mps 711 mmHg 53%
10:00 +3°C° 0 mm 1 mps 711 mmHg 49%
11:00 +4°C° 0 mm 1 mps 711 mmHg 49%
12:00 +5°C° 0 mm 1 mps 711 mmHg 48%
13:00 +4°C° 0 mm 2 mps 710 mmHg 47%
14:00 +4°C° 0 mm 1 mps 710 mmHg 51%
15:00 +4°C° 0 mm 1 mps 711 mmHg 54%
16:00 +3°C° 0 mm 1 mps 711 mmHg 57%
17:00 +2°C° 0 mm 1 mps 711 mmHg 60%
18:00 +2°C° 0 mm 1 mps 711 mmHg 62%
19:00 -1°C° 0 mm 2 mps 711 mmHg 64%
20:00 -1°C° 0 mm 2 mps 711 mmHg 65%
21:00 -1°C° 0 mm 2 mps 711 mmHg 65%
22:00 -1°C° 0 mm 2 mps 711 mmHg 66%
23:00 -1°C° 0 mm 2 mps 711 mmHg 66%

Mañana, 26 Noviembre, Jueves

Tiempo Temperatura Precipitaciones Viento Presión Humedad
00:00 -1°C° 0 mm 2 mps 710 mmHg 66%
01:00 -1°C° 0 mm 2 mps 710 mmHg 67%
02:00 -1°C° 0 mm 2 mps 710 mmHg 65%
03:00 -1°C° 0 mm 2 mps 710 mmHg 64%
04:00 +1°C° 0 mm 2 mps 710 mmHg 62%
05:00 +1°C° 0 mm 2 mps 710 mmHg 60%
06:00 +1°C° 0 mm 2 mps 710 mmHg 58%
07:00 +1°C° 0 mm 2 mps 710 mmHg 55%
08:00 +3°C° 0 mm 2 mps 710 mmHg 50%
09:00 +5°C° 0 mm 2 mps 710 mmHg 44%
10:00 +7°C° 0 mm 2 mps 710 mmHg 39%
11:00 +7°C° 0 mm 2 mps 710 mmHg 37%
12:00 +8°C° 0 mm 2 mps 710 mmHg 35%
13:00 +9°C° 0 mm 2 mps 709 mmHg 33%
14:00 +8°C° 0 mm 2 mps 709 mmHg 33%
15:00 +8°C° 0 mm 3 mps 709 mmHg 34%
16:00 +7°C° 0 mm 3 mps 709 mmHg 34%
17:00 +7°C° 0 mm 3 mps 709 mmHg 32%
18:00 +5°C° 0 mm 3 mps 709 mmHg 31%
19:00 +6°C° 0 mm 2 mps 709 mmHg 30%
20:00 +6°C° 0 mm 2 mps 709 mmHg 29%
21:00 +6°C° 0 mm 2 mps 709 mmHg 28%
22:00 +6°C° 0 mm 2 mps 709 mmHg 27%
23:00 +6°C° 0 mm 2 mps 709 mmHg 27%

Pasado mañana, 27 Noviembre, Viernes

Tiempo Temperatura Precipitaciones Viento Presión Humedad
00:00 +6°C° 0 mm 2 mps 708 mmHg 27%
01:00 +5°C° 0 mm 3 mps 708 mmHg 27%
02:00 +7°C° 0 mm 2 mps 708 mmHg 27%
03:00 +7°C° 0 mm 2 mps 708 mmHg 28%
04:00 +7°C° 0 mm 2 mps 708 mmHg 28%
05:00 +7°C° 0 mm 2 mps 708 mmHg 28%
06:00 +7°C° 0 mm 2 mps 708 mmHg 28%
07:00 +8°C° 0 mm 1 mps 707 mmHg 28%
08:00 +10°C° 0 mm 1 mps 708 mmHg 27%
09:00 +11°C° 0 mm 1 mps 708 mmHg 26%
10:00 +13°C° 0 mm 1 mps 708 mmHg 24%
11:00 +13°C° 0 mm 1 mps 708 mmHg 24%
12:00 +14°C° 0 mm 1 mps 708 mmHg 23%
13:00 +14°C° 0 mm 2 mps 708 mmHg 22%
14:00 +13°C° 0 mm 2 mps 708 mmHg 25%
15:00 +12°C° 0 mm 2 mps 708 mmHg 27%
16:00 +10°C° 0 mm 2 mps 708 mmHg 30%
17:00 +9°C° 0 mm 2 mps 709 mmHg 31%
18:00 +8°C° 0 mm 2 mps 709 mmHg 31%
19:00 +8°C° 0 mm 3 mps 710 mmHg 32%
20:00 +7°C° 0 mm 3 mps 710 mmHg 33%
21:00 +7°C° 0 mm 3 mps 711 mmHg 34%
22:00 +5°C° 0 mm 3 mps 711 mmHg 35%
23:00 +5°C° 0.1 mm 4 mps 713 mmHg 50%

28 Noviembre, Sábado

Tiempo Temperatura Precipitaciones Viento Presión Humedad
00:00 +5°C° 0.1 mm 5 mps 714 mmHg 65%
01:00 +3°C° 0.1 mm 6 mps 715 mmHg 80%
02:00 +2°C° 2.4 mm 6 mps 716 mmHg 85%
03:00 +1°C° 2.4 mm 6 mps 717 mmHg 90%
04:00 -1°C° 2.4 mm 6 mps 718 mmHg 95%
05:00 -1°C° 0.1 mm 6 mps 718 mmHg 92%
06:00 0°C° 0.1 mm 5 mps 719 mmHg 90%
07:00 0°C° 0.1 mm 4 mps 720 mmHg 87%
08:00 +1°C° 0 mm 3 mps 720 mmHg 83%
09:00 +2°C° 0 mm 3 mps 721 mmHg 79%
10:00 +3°C° 0 mm 2 mps 721 mmHg 75%
11:00 +3°C° 0 mm 2 mps 720 mmHg 73%
12:00 +4°C° 0 mm 2 mps 720 mmHg 70%
13:00 +4°C° 0 mm 2 mps 720 mmHg 68%
14:00 +4°C° 0 mm 2 mps 719 mmHg 70%
15:00 +3°C° 0 mm 3 mps 719 mmHg 72%
16:00 +1°C° 0 mm 4 mps 719 mmHg 74%
17:00 +1°C° 0 mm 4 mps 719 mmHg 78%
18:00 0°C° 0 mm 4 mps 719 mmHg 81%
19:00 -1°C° 0 mm 4 mps 718 mmHg 84%
20:00 -1°C° 0 mm 4 mps 718 mmHg 84%
21:00 -1°C° 0 mm 4 mps 718 mmHg 85%
22:00 -2°C° 0 mm 4 mps 718 mmHg 85%
23:00 -2°C° 0 mm 4 mps 717 mmHg 84%

29 Noviembre, Domingo

Tiempo Temperatura Precipitaciones Viento Presión Humedad
00:00 -2°C° 0 mm 4 mps 717 mmHg 83%
01:00 -2°C° 0 mm 4 mps 717 mmHg 83%
02:00 -2°C° 0 mm 4 mps 716 mmHg 82%
03:00 -4°C° 0 mm 5 mps 716 mmHg 82%
04:00 -4°C° 0 mm 5 mps 715 mmHg 82%
05:00 -4°C° 0 mm 5 mps 715 mmHg 80%
06:00 -4°C° 0 mm 5 mps 715 mmHg 79%
07:00 -4°C° 0 mm 5 mps 715 mmHg 77%
08:00 -2°C° 0 mm 5 mps 715 mmHg 73%
09:00 0°C° 0 mm 5 mps 715 mmHg 69%
10:00 +1°C° 0 mm 5 mps 714 mmHg 65%
11:00 +1°C° 0 mm 5 mps 714 mmHg 63%
12:00 +2°C° 0 mm 5 mps 714 mmHg 61%
13:00 +3°C° 0 mm 5 mps 713 mmHg 59%
14:00 +2°C° 0 mm 5 mps 713 mmHg 62%
15:00 +1°C° 0 mm 5 mps 713 mmHg 65%
16:00 +1°C° 0 mm 5 mps 712 mmHg 68%
17:00 0°C° 0 mm 5 mps 712 mmHg 68%
18:00 0°C° 0 mm 5 mps 712 mmHg 69%
19:00 -1°C° 0 mm 5 mps 712 mmHg 69%
20:00 -1°C° 0 mm 5 mps 712 mmHg 68%
21:00 -1°C° 0 mm 5 mps 712 mmHg 67%
22:00 -1°C° 0 mm 5 mps 711 mmHg 66%
23:00 -1°C° 0 mm 4 mps 711 mmHg 64%

30 Noviembre, Lunes

Tiempo Temperatura Precipitaciones Viento Presión Humedad
00:00 -1°C° 0 mm 4 mps 711 mmHg 62%
01:00 -1°C° 0 mm 4 mps 710 mmHg 60%
02:00 -1°C° 0 mm 4 mps 710 mmHg 59%
03:00 -1°C° 0 mm 4 mps 710 mmHg 58%
04:00 -1°C° 0 mm 4 mps 710 mmHg 57%
05:00 -1°C° 0 mm 4 mps 710 mmHg 56%
06:00 -1°C° 0 mm 5 mps 709 mmHg 55%
07:00 -1°C° 0 mm 5 mps 709 mmHg 54%
08:00 +1°C° 0 mm 5 mps 709 mmHg 50%
09:00 +2°C° 0 mm 5 mps 709 mmHg 46%
10:00 +5°C° 0 mm 5 mps 709 mmHg 42%
11:00 +6°C° 0 mm 5 mps 709 mmHg 41%
12:00 +6°C° 0 mm 5 mps 708 mmHg 40%
13:00 +7°C° 0 mm 5 mps 708 mmHg 39%
14:00 +6°C° 0 mm 4 mps 707 mmHg 41%
15:00 +6°C° 0 mm 4 mps 707 mmHg 43%
16:00 +5°C° 0 mm 4 mps 707 mmHg 45%
17:00 +5°C° 0 mm 4 mps 707 mmHg 45%
18:00 +4°C° 0 mm 4 mps 706 mmHg 44%
19:00 +4°C° 0 mm 4 mps 706 mmHg 44%
20:00 +4°C° 0 mm 3 mps 706 mmHg 43%
21:00 +4°C° 0 mm 3 mps 706 mmHg 41%
22:00 +5°C° 0 mm 3 mps 706 mmHg 40%
23:00 +5°C° 0 mm 3 mps 706 mmHg 39%
Mostrar más

Necesitamos Su Consentimiento

Meteoprog y nuestros Proveedores de Servicios pueden almacenar y acceder a sus datos personales como cookies, identificadores de dispositivo u otras tecnologías similares de su dispositivo y procesar dichos datos para personalizar contenido y anuncios, además de ofrecer funciones de redes sociales y analizar el tráfico.

  • Almacenar y/o acceder a información en su dispositivo

    Se puede almacenar o acceder a cookies, identificadores de dispositivo u otra información de su dispositivo para los fines anteriormente indicados.

  • Anuncios y contenido personalizados, medición de anuncios y contenido, percepciones del público, y desarrollo de productos

    Los anuncios y el contenido pueden personalizarse en base a su perfil. Se pueden añadir más datos para personalizar mejor los anuncios y contenidos. Se puede medir el rendimiento de los anuncios y contenidos. Se puede obtener la percepción sobre el público que ha visto los anuncios y contenidos. Dichos datos pueden usarse para desarrollar o mejorar la experiencia del usuario, sistemas y software.

Al hacer clic en ‘Estoy De Acuerdo’ usted permitirá el uso de las cookies, identificadores de dispositivo, balizas web u otras tecnologías similares indicadas. Su configuración puede cambiarse desde el navegador de su dispositivo.

Para ciertos fines, los intereses legítimos pueden ser considerados por encima del consentimiento. Puede leer más sobre ello en nuestra Política de Privacidad y Cookies.